PORTS® Data Listing: 8736897 Coast Guard Sector Mobile, AL

CO-OPS RAW PORTS DATA

************************      PRELIMINARY DATA      ************************** 

     THIS RAW DATA HAS NOT BEEN SUBJECT TO THE NATIONAL OCEAN SERVICE'S        
     QUALITY CONTROL OR QUALITY ASSURANCE PROCEDURES AND DOES NOT MEET         
     THE CRITERIA AND STANDARDS OF OFFICIAL NATIONAL OCEAN SERVICE             
     DATA.  IT IS RELEASED FOR LIMITED PUBLIC USE AS PRELIMINARY DATA TO       
     BE USED ONLY WITH APPROPRIATE CAUTION.                                    

************************      PRELIMINARY DATA      ************************** 


       CD   -   Calendar date
       T    -   Time
       TZ   -   Timezone
       PW   -   Predicted water level (feet above MLLW)
       OW   -   Observed water level (feet above MLLW)
       WS   -   Wind speed (knots)
       WD   -   Wind direction (degrees true)
       WG   -   Wind gust (knots)
       AT   -   Air temperature (degrees farenheit)
       WT   -   Water temperature (degrees farenheit)
       AP   -   Air pressure (millibars)
       SA   -   Salinty (PSU - Practical Salinity Units)
       SG   -   Specific gravity
       RH   -   Relative humidity
       AG   -   Air gap (feet)
       VI   -   Visibility (nautical miles)

       ** NOTE **
       A variable that has its data fields filled with "9"s, indicates that
       data was not collected for that sample period.
       **********


STATION NAME: Coast Guard Sector Mobile (8736897)
****************************************************************************************************
    CD       T    TZ    PW     OW    WS   WD   WG    AT    WT    AP    SA    SG     RH    AG   VI
****************************************************************************************************
2019/12/05 18:18 CST    0.70   1.23    0  195    1  65.3  60.3 1020.7 -9.9 -9.999 -99.9 -99.99 -9.99
2019/12/05 18:24 CST    0.70   1.22    1  205    1  65.1  60.3 1020.8 -9.9 -9.999 -99.9 -99.99 -9.99
2019/12/05 18:30 CST    0.71   1.25    1  221    1  65.1  60.3 1020.8 -9.9 -9.999 -99.9 -99.99 -9.99
2019/12/05 18:36 CST    0.72   1.23    1  218    1  65.1  60.3 1020.8 -9.9 -9.999 -99.9 -99.99 -9.99
2019/12/05 18:42 CST    0.73   1.26    0  218    1  64.8  60.3 1020.7 -9.9 -9.999 -99.9 -99.99 -9.99
2019/12/05 18:48 CST    0.74   1.26    0  218    0  64.2  60.3 1020.7 -9.9 -9.999 -99.9 -99.99 -9.99
2019/12/05 18:54 CST    0.75   1.26    0  218    0  63.7  60.3 1020.8 -9.9 -9.999 -99.9 -99.99 -9.99
2019/12/05 19:00 CST    0.76   1.28    0  218    0  64.0  60.3 1020.9 -9.9 -9.999 -99.9 -99.99 -9.99
2019/12/05 19:06 CST    0.77   1.27    0  218    0  64.2  60.3 1020.9 -9.9 -9.999 -99.9 -99.99 -9.99
2019/12/05 19:12 CST    0.78   1.29    0  218    0  64.2  60.3 1021.0 -9.9 -9.999 -99.9 -99.99 -9.99
2019/12/05 19:18 CST    0.79   1.30    0  218    0  64.4  60.3 1020.9 -9.9 -9.999 -99.9 -99.99 -9.99
2019/12/05 19:24 CST    0.80   1.29    0  218    1  64.0  60.3 1020.9 -9.9 -9.999 -99.9 -99.99 -9.99
2019/12/05 19:30 CST    0.81   1.34    1  231    1  64.2  60.3 1020.9 -9.9 -9.999 -99.9 -99.99 -9.99
2019/12/05 19:36 CST    0.83   1.41    1  264    1  63.9  60.3 1021.0 -9.9 -9.999 -99.9 -99.99 -9.99
2019/12/05 19:42 CST    0.84   1.35    1  294    2  63.5  60.3 1021.0 -9.9 -9.999 -99.9 -99.99 -9.99
2019/12/05 19:48 CST    0.85   1.39    1  312    2  64.0  60.3 1021.1 -9.9 -9.999 -99.9 -99.99 -9.99
2019/12/05 19:54 CST    0.86   1.36    1  280    2  63.9  60.3 1021.1 -9.9 -9.999 -99.9 -99.99 -9.99
2019/12/05 20:00 CST    0.87   1.36    0  280    1  63.3  60.3 1021.0 -9.9 -9.999 -99.9 -99.99 -9.99
2019/12/05 20:06 CST    0.87   1.36    1  325    1  63.1  60.3 1021.1 -9.9 -9.999 -99.9 -99.99 -9.99
2019/12/05 20:12 CST    0.88   1.34    0  323    1  62.6  60.3 1021.2 -9.9 -9.999 -99.9 -99.99 -9.99
2019/12/05 20:18 CST    0.89   1.39    1  311    1  62.6  60.3 1021.2 -9.9 -9.999 -99.9 -99.99 -9.99
2019/12/05 20:24 CST    0.90   1.43    1  303    2  62.4  60.3 1021.2 -9.9 -9.999 -99.9 -99.99 -9.99
2019/12/05 20:30 CST    0.90   1.42    1  299    2  63.0  60.3 1021.2 -9.9 -9.999 -99.9 -99.99 -9.99
2019/12/05 20:36 CST    0.91   1.45    0  298    1  62.8  60.3 1021.1 -9.9 -9.999 -99.9 -99.99 -9.99
2019/12/05 20:42 CST    0.92   1.44    1  310    1  62.4  60.3 1021.1 -9.9 -9.999 -99.9 -99.99 -9.99
2019/12/05 20:48 CST    0.92   1.44    0  310    1  62.6  60.3 1021.1 -9.9 -9.999 -99.9 -99.99 -9.99
2019/12/05 20:54 CST    0.93   1.42    0  310    0  62.2  60.3 1021.0 -9.9 -9.999 -99.9 -99.99 -9.99
2019/12/05 21:00 CST    0.94   1.41    0  257    1  62.1  60.3 1021.0 -9.9 -9.999 -99.9 -99.99 -9.99
2019/12/05 21:06 CST    0.94   1.44    0  257    1  62.2  60.4 1021.0 -9.9 -9.999 -99.9 -99.99 -9.99
2019/12/05 21:12 CST    0.95   1.42    0   34    1  61.9  60.4 1021.0 -9.9 -9.999 -99.9 -99.99 -9.99
2019/12/05 21:18 CST    0.95   1.47    0   25    1  61.7  60.4 1021.1 -9.9 -9.999 -99.9 -99.99 -9.99
2019/12/05 21:24 CST    0.96   1.49    0   25    1  61.9  60.4 1021.1 -9.9 -9.999 -99.9 -99.99 -9.99
2019/12/05 21:30 CST    0.97   1.49    0   25    1  62.1  60.4 1021.1 -9.9 -9.999 -99.9 -99.99 -9.99
2019/12/05 21:36 CST    0.97   1.53    0   25    1  61.9  60.4 1021.1 -9.9 -9.999 -99.9 -99.99 -9.99
2019/12/05 21:42 CST    0.98   1.47    0   25    0  61.9  60.4 1021.1 -9.9 -9.999 -99.9 -99.99 -9.99
2019/12/05 21:48 CST    0.99   1.50    1  320    1  61.5  60.4 1021.2 -9.9 -9.999 -99.9 -99.99 -9.99
2019/12/05 21:54 CST    1.00   1.45    1  314    1  61.3  60.4 1021.2 -9.9 -9.999 -99.9 -99.99 -9.99
2019/12/05 22:00 CST    1.00   1.49    1  295    1  61.5  60.4 1021.2 -9.9 -9.999 -99.9 -99.99 -9.99
2019/12/05 22:06 CST    1.01   1.52    2  305    2  61.3  60.4 1021.2 -9.9 -9.999 -99.9 -99.99 -9.99
2019/12/05 22:12 CST    1.02   1.56    2  315    2  61.2  60.4 1021.1 -9.9 -9.999 -99.9 -99.99 -9.99
2019/12/05 22:18 CST    1.03   1.55    1  310    2  61.7  60.4 1021.1 -9.9 -9.999 -99.9 -99.99 -9.99
2019/12/05 22:24 CST    1.03   1.56    1  323    2  61.7  60.4 1021.1 -9.9 -9.999 -99.9 -99.99 -9.99
2019/12/05 22:30 CST    1.04   1.54    2  301    2  60.8  60.4 1021.1 -9.9 -9.999 -99.9 -99.99 -9.99
2019/12/05 22:36 CST    1.04   1.56    2  290    2  60.3  60.4 1021.1 -9.9 -9.999 -99.9 -99.99 -9.99
2019/12/05 22:42 CST    1.05   1.52    2  259    2  60.3  60.4 1021.0 -9.9 -9.999 -99.9 -99.99 -9.99
2019/12/05 22:48 CST    1.05   1.53    1  252    2  61.3  60.4 1020.9 -9.9 -9.999 -99.9 -99.99 -9.99
2019/12/05 22:54 CST    1.05   1.54    2  246    2  60.6  60.4 1020.8 -9.9 -9.999 -99.9 -99.99 -9.99
2019/12/05 23:00 CST    1.06   1.56    2  247    3  60.1  60.4 1020.8 -9.9 -9.999 -99.9 -99.99 -9.99
2019/12/05 23:06 CST    1.06   1.54    2  254    3  60.8  60.4 1020.8 -9.9 -9.999 -99.9 -99.99 -9.99
2019/12/05 23:12 CST    1.06   1.57    2  261    3  61.0  60.4 1020.7 -9.9 -9.999 -99.9 -99.99 -9.99
2019/12/05 23:18 CST    1.06   1.53    1  267    3  61.0  60.4 1020.7 -9.9 -9.999 -99.9 -99.99 -9.99
2019/12/05 23:24 CST    1.05   1.52    1  271    2  61.2  60.4 1020.8 -9.9 -9.999 -99.9 -99.99 -9.99
2019/12/05 23:30 CST    1.05   1.48    0  270    1  61.7  60.4 1020.9 -9.9 -9.999 -99.9 -99.99 -9.99
2019/12/05 23:36 CST    1.05   1.46    1  146    1  62.4  60.4 1020.9 -9.9 -9.999 -99.9 -99.99 -9.99
2019/12/05 23:42 CST    1.04   1.47    1   67    3  62.4  60.4 1020.9 -9.9 -9.999 -99.9 -99.99 -9.99
2019/12/05 23:48 CST    1.04   1.44    2  109    3  63.1  60.4 1020.8 -9.9 -9.999 -99.9 -99.99 -9.99
2019/12/05 23:54 CST    1.03   1.43    1  110    2  63.5  60.4 1020.8 -9.9 -9.999 -99.9 -99.99 -9.99
2019/12/06 00:00 CST    1.03   1.44    2  122    3  63.9  60.4 1020.7 -9.9 -9.999 -99.9 -99.99 -9.99
2019/12/06 00:06 CST    1.02   1.43    2  129    3  63.9  60.4 1020.7 -9.9 -9.999 -99.9 -99.99 -9.99
2019/12/06 00:12 CST    1.02   1.44    2  125    3  63.9  60.4 1020.7 -9.9 -9.999 -99.9 -99.99 -9.99
2019/12/06 00:18 CST    1.01   1.42    2  113    3  64.0  60.4 1020.6 -9.9 -9.999 -99.9 -99.99 -9.99
2019/12/06 00:24 CST    1.00   1.41    3  129    4  64.6  60.4 1020.5 -9.9 -9.999 -99.9 -99.99 -9.99
2019/12/06 00:30 CST    1.00   1.40    3  123    4  64.9  60.4 1020.5 -9.9 -9.999 -99.9 -99.99 -9.99
2019/12/06 00:36 CST    0.99   1.39    3  131    4  64.9  60.4 1020.6 -9.9 -9.999 -99.9 -99.99 -9.99
2019/12/06 00:42 CST    0.99   1.37    2  130    3  64.9  60.6 1020.6 -9.9 -9.999 -99.9 -99.99 -9.99
2019/12/06 00:48 CST    0.98   1.34    1  120    3  64.8  60.6 1020.7 -9.9 -9.999 -99.9 -99.99 -9.99
2019/12/06 00:54 CST    0.98   1.34    0   73    0  64.0  60.6 1020.6 -9.9 -9.999 -99.9 -99.99 -9.99
2019/12/06 01:00 CST    0.98   1.32    1   90    2  63.9  60.6 1020.4 -9.9 -9.999 -99.9 -99.99 -9.99
2019/12/06 01:06 CST    0.97   1.31    0   89    2  63.5  60.6 1020.4 -9.9 -9.999 -99.9 -99.99 -9.99
2019/12/06 01:12 CST    0.97   1.30    2  129    2  64.0  60.6 1020.4 -9.9 -9.999 -99.9 -99.99 -9.99
2019/12/06 01:18 CST    0.97   1.28    2  131    3  64.4  60.6 1020.2 -9.9 -9.999 -99.9 -99.99 -9.99
2019/12/06 01:24 CST    0.97   1.26    2  188    2  64.6  60.6 1020.3 -9.9 -9.999 -99.9 -99.99 -9.99
2019/12/06 01:30 CST    0.96   1.25    3  158    4  64.8  60.6 1020.3 -9.9 -9.999 -99.9 -99.99 -9.99
2019/12/06 01:36 CST    0.96   1.22    2  140    4  64.9  60.6 1020.2 -9.9 -9.999 -99.9 -99.99 -9.99
2019/12/06 01:42 CST    0.96   1.20    2  159    5  64.9  60.6 1020.2 -9.9 -9.999 -99.9 -99.99 -9.99
2019/12/06 01:48 CST    0.96   1.17    1  162    2  64.6  60.6 1020.2 -9.9 -9.999 -99.9 -99.99 -9.99
2019/12/06 01:54 CST    0.96   1.17    1  137    2  64.2  60.6 1020.0 -9.9 -9.999 -99.9 -99.99 -9.99
2019/12/06 02:00 CST    0.96   1.13    1  133    2  64.2  60.6 1019.9 -9.9 -9.999 -99.9 -99.99 -9.99
2019/12/06 02:06 CST    0.96   1.13    2  139    2  64.0  60.6 1019.8 -9.9 -9.999 -99.9 -99.99 -9.99
2019/12/06 02:12 CST    0.96   1.13    1  161    2  63.9  60.6 1019.7 -9.9 -9.999 -99.9 -99.99 -9.99
2019/12/06 02:18 CST    0.95   1.12    1  138    2  63.9  60.6 1019.7 -9.9 -9.999 -99.9 -99.99 -9.99
2019/12/06 02:24 CST    0.95   1.10    1  138    1  64.2  60.6 1019.7 -9.9 -9.999 -99.9 -99.99 -9.99
2019/12/06 02:30 CST    0.95   1.09    0  160    2  64.2  60.6 1019.8 -9.9 -9.999 -99.9 -99.99 -9.99
2019/12/06 02:36 CST    0.95   1.09    2  138    3  64.6  60.6 1019.7 -9.9 -9.999 -99.9 -99.99 -9.99
2019/12/06 02:42 CST    0.95   1.07    3  142    4  64.9  60.6 1019.7 -9.9 -9.999 -99.9 -99.99 -9.99
2019/12/06 02:48 CST    0.94   1.07    3  136    4  65.1  60.6 1019.6 -9.9 -9.999 -99.9 -99.99 -9.99
2019/12/06 02:54 CST    0.94   1.06    4  128    4  65.3  60.6 1019.5 -9.9 -9.999 -99.9 -99.99 -9.99
2019/12/06 03:00 CST    0.94   1.05    3  135    5  65.5  60.6 1019.6 -9.9 -9.999 -99.9 -99.99 -9.99
2019/12/06 03:06 CST    0.93   1.03    2  128    3  65.3  60.6 1019.6 -9.9 -9.999 -99.9 -99.99 -9.99
2019/12/06 03:12 CST    0.93   1.03    3  134    4  65.5  60.6 1019.5 -9.9 -9.999 -99.9 -99.99 -9.99
2019/12/06 03:18 CST    0.93   1.01    3  131    4  65.5  60.6 1019.4 -9.9 -9.999 -99.9 -99.99 -9.99
2019/12/06 03:24 CST    0.93   1.02    4  139    7  65.5  60.6 1019.4 -9.9 -9.999 -99.9 -99.99 -9.99
2019/12/06 03:30 CST    0.92   1.01    2  147    5  65.5  60.6 1019.5 -9.9 -9.999 -99.9 -99.99 -9.99
2019/12/06 03:36 CST    0.92   1.05    2  157    3  65.5  60.6 1019.7 -9.9 -9.999 -99.9 -99.99 -9.99
2019/12/06 03:42 CST    0.92   0.98    2  153    3  65.5  60.6 1019.7 -9.9 -9.999 -99.9 -99.99 -9.99
2019/12/06 03:48 CST    0.92   1.07    3  158    3  65.7  60.6 1019.7 -9.9 -9.999 -99.9 -99.99 -9.99
2019/12/06 03:54 CST    0.92   1.00    3  144    4  65.7  60.6 1019.9 -9.9 -9.999 -99.9 -99.99 -9.99
2019/12/06 04:00 CST    0.91   0.97    0  248    3  65.1  60.6 1019.8 -9.9 -9.999 -99.9 -99.99 -9.99
2019/12/06 04:06 CST    0.91   0.99    0  268    1  65.1  60.6 1019.8 -9.9 -9.999 -99.9 -99.99 -9.99
2019/12/06 04:12 CST    0.91   0.95    1  203    1  65.3  60.6 1020.0 -9.9 -9.999 -99.9 -99.99 -9.99
2019/12/06 04:18 CST    0.91   0.98    1   69    3  64.2  60.6 1020.1 -9.9 -9.999 -99.9 -99.99 -9.99
2019/12/06 04:24 CST    0.91   0.96    3  314    4  62.6  60.6 1020.2 -9.9 -9.999 -99.9 -99.99 -9.99
2019/12/06 04:30 CST    0.91   1.01    2  290    4  61.2  60.6 1020.2 -9.9 -9.999 -99.9 -99.99 -9.99
2019/12/06 04:36 CST    0.90   0.96    2  293    3  61.2  60.6 1020.3 -9.9 -9.999 -99.9 -99.99 -9.99
2019/12/06 04:42 CST    0.90   1.01    1  320    3  61.2  60.6 1020.3 -9.9 -9.999 -99.9 -99.99 -9.99
2019/12/06 04:48 CST    0.90   1.01    1  334    2  61.2  60.6 1020.3 -9.9 -9.999 -99.9 -99.99 -9.99
2019/12/06 04:54 CST    0.90   0.99    1  352    2  61.3  60.6 1020.4 -9.9 -9.999 -99.9 -99.99 -9.99
2019/12/06 05:00 CST    0.90   1.01    0   25    2  61.3  60.6 1020.3 -9.9 -9.999 -99.9 -99.99 -9.99
2019/12/06 05:06 CST    0.89   1.04    2   23    2  61.2  60.6 1020.3 -9.9 -9.999 -99.9 -99.99 -9.99
2019/12/06 05:12 CST    0.89   1.01    1  322    3  61.3  60.6 1020.4 -9.9 -9.999 -99.9 -99.99 -9.99
2019/12/06 05:18 CST    0.88   1.05    0  333    2  61.3  60.6 1020.4 -9.9 -9.999 -99.9 -99.99 -9.99
2019/12/06 05:24 CST    0.88   1.02    0  332    1  61.3  60.6 1020.3 -9.9 -9.999 -99.9 -99.99 -9.99
2019/12/06 05:30 CST    0.88   1.00    0  339    1  61.3  60.6 1020.3 -9.9 -9.999 -99.9 -99.99 -9.99
2019/12/06 05:36 CST    0.87   1.03    1   16    2  61.0  60.6 1020.3 -9.9 -9.999 -99.9 -99.99 -9.99
2019/12/06 05:42 CST    0.87   1.00    1  350    1  61.0  60.6 1020.4 -9.9 -9.999 -99.9 -99.99 -9.99
2019/12/06 05:48 CST    0.86   1.02    2  313    2  60.8  60.6 1020.6 -9.9 -9.999 -99.9 -99.99 -9.99
2019/12/06 05:54 CST    0.86   1.02    2  323    3  61.0  60.6 1020.6 -9.9 -9.999 -99.9 -99.99 -9.99
2019/12/06 06:00 CST    0.85   1.01    2  341    3  61.0  60.6 1020.7 -9.9 -9.999 -99.9 -99.99 -9.99
2019/12/06 06:06 CST    0.84   1.02    2  324    3  61.0  60.6 1020.9 -9.9 -9.999 -99.9 -99.99 -9.99
2019/12/06 06:12 CST    0.84   0.98    1  314    2  61.0  60.6 1020.9 -9.9 -9.999 -99.9 -99.99 -9.99
2019/12/06 06:18 CST    0.84   1.00    2  312    3  60.8  60.6 1020.9 -9.9 -9.999 -99.9 -99.99 -9.99
2019/12/06 06:24 CST    0.83   0.97    2  327    3  60.8  60.6 1020.9 -9.9 -9.999 -99.9 -99.99 -9.99
2019/12/06 06:30 CST    0.83   0.97    1  336    2  60.8  60.6 1020.8 -9.9 -9.999 -99.9 -99.99 -9.99
2019/12/06 06:36 CST    0.82   0.99    1   19    1  60.8  60.6 1020.8 -9.9 -9.999 -99.9 -99.99 -9.99
2019/12/06 06:42 CST    0.82   1.01    0  349    1  60.8  60.6 1020.7 -9.9 -9.999 -99.9 -99.99 -9.99
2019/12/06 06:48 CST    0.82   1.01    1  358    1  61.0  60.6 1020.7 -9.9 -9.999 -99.9 -99.99 -9.99
2019/12/06 06:54 CST    0.82   1.00    1  327    2  61.2  60.6 1020.9 -9.9 -9.999 -99.9 -99.99 -9.99
2019/12/06 07:00 CST    0.82   1.01    1  321    1  61.3  60.6 1020.9 -9.9 -9.999 -99.9 -99.99 -9.99
2019/12/06 07:06 CST    0.81   0.98    1  321    2  61.3  60.6 1020.9 -9.9 -9.999 -99.9 -99.99 -9.99
2019/12/06 07:12 CST    0.82   0.98    1  334    2  61.7  60.6 1020.9 -9.9 -9.999 -99.9 -99.99 -9.99
2019/12/06 07:18 CST    0.82   0.97    1  308    2  61.9  60.6 1020.9 -9.9 -9.999 -99.9 -99.99 -9.99
2019/12/06 07:24 CST    0.82   0.99    1  313    2  61.9  60.6 1021.0 -9.9 -9.999 -99.9 -99.99 -9.99
2019/12/06 07:30 CST    0.82   1.00    2  319    2  62.1  60.6 1021.0 -9.9 -9.999 -99.9 -99.99 -9.99
2019/12/06 07:36 CST    0.82   1.02    2  300    2  61.9  60.6 1021.0 -9.9 -9.999 -99.9 -99.99 -9.99
2019/12/06 07:42 CST    0.82   1.01    1  291    2  62.1  60.6 1020.9 -9.9 -9.999 -99.9 -99.99 -9.99
2019/12/06 07:48 CST    0.82   1.02    1  270    1  61.9  60.6 1020.8 -9.9 -9.999 -99.9 -99.99 -9.99
2019/12/06 07:54 CST    0.82   0.99    1  273    2  62.1  60.6 1020.9 -9.9 -9.999 -99.9 -99.99 -9.99
2019/12/06 08:00 CST    0.83   0.98    2  263    2  62.2  60.6 1020.8 -9.9 -9.999 -99.9 -99.99 -9.99
2019/12/06 08:06 CST    0.83   0.96    2  301    2  62.6  60.6 1020.9 -9.9 -9.999 -99.9 -99.99 -9.99
2019/12/06 08:12 CST    0.83   0.96    1  328    2  63.1  60.6 1020.9 -9.9 -9.999 -99.9 -99.99 -9.99
2019/12/06 08:18 CST    0.83   0.96    1  327    1  63.7  60.6 1021.0 -9.9 -9.999 -99.9 -99.99 -9.99
2019/12/06 08:24 CST    0.83   0.96    0  314    1  64.6  60.6 1021.1 -9.9 -9.999 -99.9 -99.99 -9.99
2019/12/06 08:30 CST    0.83   0.98    0  314    0  65.1  60.6 1021.1 -9.9 -9.999 -99.9 -99.99 -9.99
2019/12/06 08:36 CST    0.83   1.01    0  314    0  65.7  60.6 1021.0 -9.9 -9.999 -99.9 -99.99 -9.99
2019/12/06 08:42 CST    0.83   1.02    0  314    0  65.3  60.6 1021.1 -9.9 -9.999 -99.9 -99.99 -9.99
2019/12/06 08:48 CST    0.82   1.03    0  315    0  65.1  60.6 1021.2 -9.9 -9.999 -99.9 -99.99 -9.99
2019/12/06 08:54 CST    0.82   1.02    0  315    0  65.7  60.6 1021.2 -9.9 -9.999 -99.9 -99.99 -9.99
2019/12/06 09:00 CST    0.82   1.00    0  315    0  66.0  60.6 1021.3 -9.9 -9.999 -99.9 -99.99 -9.99
2019/12/06 09:06 CST    0.82   0.97    0   69    2  66.2  60.6 1021.4 -9.9 -9.999 -99.9 -99.99 -9.99
2019/12/06 09:12 CST    0.82   0.95    0  122    2  66.4  60.6 1021.3 -9.9 -9.999 -99.9 -99.99 -9.99
2019/12/06 09:18 CST    0.81   0.93    1  151    3  66.4  60.6 1021.3 -9.9 -9.999 -99.9 -99.99 -9.99
2019/12/06 09:24 CST    0.81   0.94    1  117    2  66.2  60.6 1021.4 -9.9 -9.999 -99.9 -99.99 -9.99
2019/12/06 09:30 CST    0.81   0.95    0   68    2  66.2  60.6 1021.3 -9.9 -9.999 -99.9 -99.99 -9.99
2019/12/06 09:36 CST    0.81   0.97    1   73    1  66.2  60.6 1021.4 -9.9 -9.999 -99.9 -99.99 -9.99
2019/12/06 09:42 CST    0.81   0.98    1   17    1  66.4  60.6 1021.4 -9.9 -9.999 -99.9 -99.99 -9.99
2019/12/06 09:48 CST    0.81   0.99    1  103    2  66.6  60.6 1021.3 -9.9 -9.999 -99.9 -99.99 -9.99
2019/12/06 09:54 CST    0.80   1.00    1   79    3  66.6  60.6 1021.2 -9.9 -9.999 -99.9 -99.99 -9.99
2019/12/06 10:00 CST    0.80   0.99    1  100    2  66.7  60.6 1021.1 -9.9 -9.999 -99.9 -99.99 -9.99
2019/12/06 10:06 CST    0.80   0.97    1   98    2  66.7  60.6 1021.1 -9.9 -9.999 -99.9 -99.99 -9.99
2019/12/06 10:12 CST    0.80   0.96    2   92    2  66.7  60.6 1020.9 -9.9 -9.999 -99.9 -99.99 -9.99
2019/12/06 10:18 CST    0.80   0.94    2  113    3  66.6  60.6 1020.8 -9.9 -9.999 -99.9 -99.99 -9.99
2019/12/06 10:24 CST    0.80   0.94    2  135    3  67.1  60.6 1020.8 -9.9 -9.999 -99.9 -99.99 -9.99
2019/12/06 10:30 CST    0.80   0.93    2  141    3  67.8  60.6 1020.6 -9.9 -9.999 -99.9 -99.99 -9.99
2019/12/06 10:36 CST    0.80   0.94    2  128    3  67.5  60.6 1020.5 -9.9 -9.999 -99.9 -99.99 -9.99
2019/12/06 10:42 CST    0.80   0.96    2  127    3  67.5  60.6 1020.4 -9.9 -9.999 -99.9 -99.99 -9.99
2019/12/06 10:48 CST    0.80   0.97    3  166    4  67.6  60.6 1020.1 -9.9 -9.999 -99.9 -99.99 -9.99
2019/12/06 10:54 CST    0.80   0.99    2  167    4  68.2  60.6 1019.9 -9.9 -9.999 -99.9 -99.99 -9.99
2019/12/06 11:00 CST    0.80   0.99    3  150    5  69.1  60.6 1019.8 -9.9 -9.999 -99.9 -99.99 -9.99
2019/12/06 11:06 CST    0.80   0.99    3  177    5  68.9  60.6 1019.7 -9.9 -9.999 -99.9 -99.99 -9.99
2019/12/06 11:12 CST    0.80   0.98    4  184    5  69.1  60.6 1019.8 -9.9 -9.999 -99.9 -99.99 -9.99
2019/12/06 11:18 CST    0.80   0.94    3  186    5  70.7  60.6 1019.7 -9.9 -9.999 -99.9 -99.99 -9.99
2019/12/06 11:24 CST    0.80   0.91    3  188    5  71.6  60.6 1019.6 -9.9 -9.999 -99.9 -99.99 -9.99
2019/12/06 11:30 CST    0.79   0.88    4  169    6  71.8  60.6 1019.4 -9.9 -9.999 -99.9 -99.99 -9.99
2019/12/06 11:36 CST    0.79   0.88    5  176    8  72.1  60.6 1019.4 -9.9 -9.999 -99.9 -99.99 -9.99
2019/12/06 11:42 CST    0.78   0.88    6  168    7  71.1  60.6 1019.4 -9.9 -9.999 -99.9 -99.99 -9.99
2019/12/06 11:48 CST    0.78   0.91    6  162    9  70.9  60.6 1019.2 -9.9 -9.999 -99.9 -99.99 -9.99
2019/12/06 11:54 CST    0.77   0.94    6  158    8  70.9  60.6 1019.0 -9.9 -9.999 -99.9 -99.99 -9.99
2019/12/06 12:00 CST    0.76   0.96    5  164    7  70.7  60.6 1018.9 -9.9 -9.999 -99.9 -99.99 -9.99
2019/12/06 12:06 CST    0.76 -99.99 -999 -999 -999 -99.9 -99.9 -999.9 -9.9 -9.999 -99.9 -99.99 -9.99
2019/12/06 12:12 CST    0.75 -99.99 -999 -999 -999 -99.9 -99.9 -999.9 -9.9 -9.999 -99.9 -99.99 -9.99
2019/12/06 12:18 CST    0.74 -99.99 -999 -999 -999 -99.9 -99.9 -999.9 -9.9 -9.999 -99.9 -99.99 -9.99
2019/12/06 12:24 CST    0.74 -99.99 -999 -999 -999 -99.9 -99.9 -999.9 -9.9 -9.999 -99.9 -99.99 -9.99
2019/12/06 12:30 CST    0.73 -99.99 -999 -999 -999 -99.9 -99.9 -999.9 -9.9 -9.999 -99.9 -99.99 -9.99
2019/12/06 12:36 CST    0.72 -99.99 -999 -999 -999 -99.9 -99.9 -999.9 -9.9 -9.999 -99.9 -99.99 -9.99
2019/12/06 12:42 CST    0.71 -99.99 -999 -999 -999 -99.9 -99.9 -999.9 -9.9 -9.999 -99.9 -99.99 -9.99
2019/12/06 12:48 CST    0.71 -99.99 -999 -999 -999 -99.9 -99.9 -999.9 -9.9 -9.999 -99.9 -99.99 -9.99
2019/12/06 12:54 CST    0.70 -99.99 -999 -999 -999 -99.9 -99.9 -999.9 -9.9 -9.999 -99.9 -99.99 -9.99
2019/12/06 13:00 CST    0.69 -99.99 -999 -999 -999 -99.9 -99.9 -999.9 -9.9 -9.999 -99.9 -99.99 -9.99
2019/12/06 13:06 CST    0.69 -99.99 -999 -999 -999 -99.9 -99.9 -999.9 -9.9 -9.999 -99.9 -99.99 -9.99
2019/12/06 13:12 CST    0.69 -99.99 -999 -999 -999 -99.9 -99.9 -999.9 -9.9 -9.999 -99.9 -99.99 -9.99
2019/12/06 13:18 CST    0.68 -99.99 -999 -999 -999 -99.9 -99.9 -999.9 -9.9 -9.999 -99.9 -99.99 -9.99
2019/12/06 13:24 CST    0.68 -99.99 -999 -999 -999 -99.9 -99.9 -999.9 -9.9 -9.999 -99.9 -99.99 -9.99
2019/12/06 13:30 CST    0.68 -99.99 -999 -999 -999 -99.9 -99.9 -999.9 -9.9 -9.999 -99.9 -99.99 -9.99
2019/12/06 13:36 CST    0.68 -99.99 -999 -999 -999 -99.9 -99.9 -999.9 -9.9 -9.999 -99.9 -99.99 -9.99
2019/12/06 13:42 CST    0.67 -99.99 -999 -999 -999 -99.9 -99.9 -999.9 -9.9 -9.999 -99.9 -99.99 -9.99
2019/12/06 13:48 CST    0.67 -99.99 -999 -999 -999 -99.9 -99.9 -999.9 -9.9 -9.999 -99.9 -99.99 -9.99
2019/12/06 13:54 CST    0.68 -99.99 -999 -999 -999 -99.9 -99.9 -999.9 -9.9 -9.999 -99.9 -99.99 -9.99
2019/12/06 14:00 CST    0.68 -99.99 -999 -999 -999 -99.9 -99.9 -999.9 -9.9 -9.999 -99.9 -99.99 -9.99
2019/12/06 14:06 CST    0.68 -99.99 -999 -999 -999 -99.9 -99.9 -999.9 -9.9 -9.999 -99.9 -99.99 -9.99
2019/12/06 14:12 CST    0.68 -99.99 -999 -999 -999 -99.9 -99.9 -999.9 -9.9 -9.999 -99.9 -99.99 -9.99
2019/12/06 14:18 CST    0.68 -99.99 -999 -999 -999 -99.9 -99.9 -999.9 -9.9 -9.999 -99.9 -99.99 -9.99
2019/12/06 14:24 CST    0.68 -99.99 -999 -999 -999 -99.9 -99.9 -999.9 -9.9 -9.999 -99.9 -99.99 -9.99
2019/12/06 14:30 CST    0.69 -99.99 -999 -999 -999 -99.9 -99.9 -999.9 -9.9 -9.999 -99.9 -99.99 -9.99
2019/12/06 14:36 CST    0.69 -99.99 -999 -999 -999 -99.9 -99.9 -999.9 -9.9 -9.999 -99.9 -99.99 -9.99
2019/12/06 14:42 CST    0.69 -99.99 -999 -999 -999 -99.9 -99.9 -999.9 -9.9 -9.999 -99.9 -99.99 -9.99
2019/12/06 14:48 CST    0.69 -99.99 -999 -999 -999 -99.9 -99.9 -999.9 -9.9 -9.999 -99.9 -99.99 -9.99
2019/12/06 14:54 CST    0.69 -99.99 -999 -999 -999 -99.9 -99.9 -999.9 -9.9 -9.999 -99.9 -99.99 -9.99
2019/12/06 15:00 CST    0.70 -99.99 -999 -999 -999 -99.9 -99.9 -999.9 -9.9 -9.999 -99.9 -99.99 -9.99
2019/12/06 15:06 CST    0.70 -99.99 -999 -999 -999 -99.9 -99.9 -999.9 -9.9 -9.999 -99.9 -99.99 -9.99
2019/12/06 15:12 CST    0.70 -99.99 -999 -999 -999 -99.9 -99.9 -999.9 -9.9 -9.999 -99.9 -99.99 -9.99
2019/12/06 15:18 CST    0.70 -99.99 -999 -999 -999 -99.9 -99.9 -999.9 -9.9 -9.999 -99.9 -99.99 -9.99
2019/12/06 15:24 CST    0.71 -99.99 -999 -999 -999 -99.9 -99.9 -999.9 -9.9 -9.999 -99.9 -99.99 -9.99
2019/12/06 15:30 CST    0.71 -99.99 -999 -999 -999 -99.9 -99.9 -999.9 -9.9 -9.999 -99.9 -99.99 -9.99
2019/12/06 15:36 CST    0.71 -99.99 -999 -999 -999 -99.9 -99.9 -999.9 -9.9 -9.999 -99.9 -99.99 -9.99
2019/12/06 15:42 CST    0.72 -99.99 -999 -999 -999 -99.9 -99.9 -999.9 -9.9 -9.999 -99.9 -99.99 -9.99
2019/12/06 15:48 CST    0.72 -99.99 -999 -999 -999 -99.9 -99.9 -999.9 -9.9 -9.999 -99.9 -99.99 -9.99
2019/12/06 15:54 CST    0.72 -99.99 -999 -999 -999 -99.9 -99.9 -999.9 -9.9 -9.999 -99.9 -99.99 -9.99
2019/12/06 16:00 CST    0.73 -99.99 -999 -999 -999 -99.9 -99.9 -999.9 -9.9 -9.999 -99.9 -99.99 -9.99
2019/12/06 16:06 CST    0.73 -99.99 -999 -999 -999 -99.9 -99.9 -999.9 -9.9 -9.999 -99.9 -99.99 -9.99
2019/12/06 16:12 CST    0.74 -99.99 -999 -999 -999 -99.9 -99.9 -999.9 -9.9 -9.999 -99.9 -99.99 -9.99
2019/12/06 16:18 CST    0.74 -99.99 -999 -999 -999 -99.9 -99.9 -999.9 -9.9 -9.999 -99.9 -99.99 -9.99
2019/12/06 16:24 CST    0.75 -99.99 -999 -999 -999 -99.9 -99.9 -999.9 -9.9 -9.999 -99.9 -99.99 -9.99
2019/12/06 16:30 CST    0.75 -99.99 -999 -999 -999 -99.9 -99.9 -999.9 -9.9 -9.999 -99.9 -99.99 -9.99
2019/12/06 16:36 CST    0.76 -99.99 -999 -999 -999 -99.9 -99.9 -999.9 -9.9 -9.999 -99.9 -99.99 -9.99
2019/12/06 16:42 CST    0.77 -99.99 -999 -999 -999 -99.9 -99.9 -999.9 -9.9 -9.999 -99.9 -99.99 -9.99
2019/12/06 16:48 CST    0.78 -99.99 -999 -999 -999 -99.9 -99.9 -999.9 -9.9 -9.999 -99.9 -99.99 -9.99
2019/12/06 16:54 CST    0.78 -99.99 -999 -999 -999 -99.9 -99.9 -999.9 -9.9 -9.999 -99.9 -99.99 -9.99
2019/12/06 17:00 CST    0.79 -99.99 -999 -999 -999 -99.9 -99.9 -999.9 -9.9 -9.999 -99.9 -99.99 -9.99
2019/12/06 17:06 CST    0.80 -99.99 -999 -999 -999 -99.9 -99.9 -999.9 -9.9 -9.999 -99.9 -99.99 -9.99
2019/12/06 17:12 CST    0.80 -99.99 -999 -999 -999 -99.9 -99.9 -999.9 -9.9 -9.999 -99.9 -99.99 -9.99
2019/12/06 17:18 CST    0.81 -99.99 -999 -999 -999 -99.9 -99.9 -999.9 -9.9 -9.999 -99.9 -99.99 -9.99
2019/12/06 17:24 CST    0.82 -99.99 -999 -999 -999 -99.9 -99.9 -999.9 -9.9 -9.999 -99.9 -99.99 -9.99
2019/12/06 17:30 CST    0.82 -99.99 -999 -999 -999 -99.9 -99.9 -999.9 -9.9 -9.999 -99.9 -99.99 -9.99
2019/12/06 17:36 CST    0.83 -99.99 -999 -999 -999 -99.9 -99.9 -999.9 -9.9 -9.999 -99.9 -99.99 -9.99
2019/12/06 17:42 CST    0.84 -99.99 -999 -999 -999 -99.9 -99.9 -999.9 -9.9 -9.999 -99.9 -99.99 -9.99
2019/12/06 17:48 CST    0.84 -99.99 -999 -999 -999 -99.9 -99.9 -999.9 -9.9 -9.999 -99.9 -99.99 -9.99
2019/12/06 17:54 CST    0.85 -99.99 -999 -999 -999 -99.9 -99.9 -999.9 -9.9 -9.999 -99.9 -99.99 -9.99
2019/12/06 18:00 CST    0.85 -99.99 -999 -999 -999 -99.9 -99.9 -999.9 -9.9 -9.999 -99.9 -99.99 -9.99
2019/12/06 18:06 CST    0.85 -99.99 -999 -999 -999 -99.9 -99.9 -999.9 -9.9 -9.999 -99.9 -99.99 -9.99
2019/12/06 18:12 CST    0.86 -99.99 -999 -999 -999 -99.9 -99.9 -999.9 -9.9 -9.999 -99.9 -99.99 -9.99
2019/12/06 18:18 CST    0.86 -99.99 -999 -999 -999 -99.9 -99.9 -999.9 -9.9 -9.999 -99.9 -99.99 -9.99